Time,TemperatureF,DewpointF,PressureIn,WindDirection,WindDirectionDegrees,WindSpeedMPH,WindSpeedGustMPH,Humidity,HourlyPrecipIn,Conditions,Clouds,dailyrainin,SoftwareType,DateUTC
2013-01-10 00:03:00,48.0,28.0,30.16,NW,310,6.0,-999.0,46,-99.99,,,-99.99,,2013-01-10 05:03:00,
2013-01-10 00:12:00,48.0,28.0,30.17,NW,320,16.0,25.0,46,-99.99,,,-99.99,,2013-01-10 05:12:00,
2013-01-10 00:22:00,48.0,30.0,30.18,NW,310,12.0,22.0,49,-99.99,,,-99.99,,2013-01-10 05:22:00,
2013-01-10 00:33:00,48.0,30.0,30.19,NW,320,13.0,30.0,49,-99.99,,,-99.99,,2013-01-10 05:33:00,
2013-01-10 00:42:00,48.0,30.0,30.19,NW,310,13.0,30.0,49,-99.99,,,-99.99,,2013-01-10 05:42:00,
2013-01-10 00:52:00,48.0,30.0,30.20,NW,320,12.0,28.0,49,-99.99,,,-99.99,,2013-01-10 05:52:00,
2013-01-10 01:02:00,48.0,30.0,30.20,NW,320,12.0,28.0,49,-99.99,,,-99.99,,2013-01-10 06:02:00,
2013-01-10 01:12:00,46.0,28.0,30.22,NNW,330,14.0,24.0,49,-99.99,,,-99.99,,2013-01-10 06:12:00,
2013-01-10 01:22:00,46.0,27.0,30.23,NNW,330,8.0,22.0,45,-99.99,,,-99.99,,2013-01-10 06:22:00,
2013-01-10 01:32:00,46.0,27.0,30.23,NW,320,18.0,31.0,45,-99.99,,,-99.99,,2013-01-10 06:32:00,
2013-01-10 01:42:00,46.0,27.0,30.24,NNW,340,13.0,31.0,45,-99.99,,,-99.99,,2013-01-10 06:42:00,
2013-01-10 01:52:00,46.0,27.0,30.24,NNW,330,10.0,20.0,45,-99.99,,,-99.99,,2013-01-10 06:52:00,
2013-01-10 02:02:00,46.0,27.0,30.24,NNW,330,10.0,20.0,45,-99.99,,,-99.99,,2013-01-10 07:02:00,
2013-01-10 02:12:00,46.0,27.0,30.25,NW,320,13.0,18.0,45,-99.99,,,-99.99,,2013-01-10 07:12:00,
2013-01-10 02:22:00,46.0,28.0,30.25,NW,310,14.0,28.0,49,-99.99,,,-99.99,,2013-01-10 07:22:00,
2013-01-10 02:32:00,46.0,28.0,30.25,NNW,340,12.0,23.0,49,-99.99,,,-99.99,,2013-01-10 07:32:00,
2013-01-10 02:42:00,46.0,28.0,30.25,NW,320,10.0,25.0,49,-99.99,,,-99.99,,2013-01-10 07:42:00,
2013-01-10 02:52:00,46.0,30.0,30.25,NW,320,10.0,30.0,52,-99.99,,,-99.99,,2013-01-10 07:52:00,
2013-01-10 03:02:00,46.0,30.0,30.25,NW,320,10.0,30.0,52,-99.99,,,-99.99,,2013-01-10 08:02:00,
2013-01-10 03:12:00,46.0,30.0,30.26,NNW,340,12.0,27.0,52,-99.99,,,-99.99,,2013-01-10 08:12:00,
2013-01-10 03:22:00,46.0,30.0,30.27,NNW,330,13.0,29.0,52,-99.99,,,-99.99,,2013-01-10 08:22:00,
2013-01-10 03:32:00,45.0,28.0,30.27,NW,320,20.0,28.0,52,-99.99,,,-99.99,,2013-01-10 08:32:00,
2013-01-10 03:42:00,45.0,27.0,30.28,NNW,330,13.0,28.0,48,-99.99,,,-99.99,,2013-01-10 08:42:00,
2013-01-10 03:52:00,45.0,27.0,30.28,North,350,18.0,24.0,48,-99.99,,,-99.99,,2013-01-10 08:52:00,
2013-01-10 04:02:00,45.0,27.0,30.28,North,350,18.0,24.0,48,-99.99,,,-99.99,,2013-01-10 09:02:00,
2013-01-10 04:12:00,45.0,27.0,30.29,North,360,15.0,25.0,48,-99.99,,,-99.99,,2013-01-10 09:12:00,
2013-01-10 04:22:00,43.0,27.0,30.30,NNW,340,10.0,22.0,52,-99.99,,,-99.99,,2013-01-10 09:22:00,
2013-01-10 04:32:00,43.0,27.0,30.30,North,350,13.0,22.0,52,-99.99,,,-99.99,,2013-01-10 09:32:00,
2013-01-10 04:42:00,43.0,27.0,30.30,NNW,330,12.0,25.0,52,-99.99,,,-99.99,,2013-01-10 09:42:00,
2013-01-10 04:52:00,43.0,27.0,30.31,NNW,340,12.0,23.0,52,-99.99,,,-99.99,,2013-01-10 09:52:00,
2013-01-10 05:03:00,43.0,27.0,30.31,NNW,340,12.0,23.0,52,-99.99,,,-99.99,,2013-01-10 10:03:00,
2013-01-10 05:12:00,43.0,27.0,30.32,North,350,16.0,27.0,52,-99.99,,,-99.99,,2013-01-10 10:12:00,
2013-01-10 05:22:00,43.0,27.0,30.33,NNW,340,12.0,22.0,52,-99.99,,,-99.99,,2013-01-10 10:22:00,
2013-01-10 05:32:00,43.0,27.0,30.33,North,350,13.0,24.0,52,-99.99,,,-99.99,,2013-01-10 10:32:00,
2013-01-10 05:42:00,43.0,27.0,30.33,North,360,13.0,21.0,52,-99.99,,,-99.99,,2013-01-10 10:42:00,
2013-01-10 05:52:00,43.0,28.0,30.36,North,10,8.0,21.0,56,-99.99,,,-99.99,,2013-01-10 10:52:00,
2013-01-10 06:02:00,43.0,28.0,30.36,North,10,8.0,21.0,56,-99.99,,,-99.99,,2013-01-10 11:02:00,
2013-01-10 06:12:00,41.0,28.0,30.37,North,10,7.0,-999.0,60,-99.99,,,-99.99,,2013-01-10 11:12:00,
2013-01-10 06:22:00,41.0,28.0,30.39,North,10,13.0,18.0,60,-99.99,,,-99.99,,2013-01-10 11:22:00,
2013-01-10 06:33:00,41.0,28.0,30.39,North,10,10.0,16.0,60,-99.99,,,-99.99,,2013-01-10 11:33:00,
2013-01-10 06:43:00,41.0,28.0,30.40,North,360,10.0,17.0,60,-99.99,,,-99.99,,2013-01-10 11:43:00,
2013-01-10 06:52:00,41.0,28.0,30.41,North,350,12.0,17.0,60,-99.99,,,-99.99,,2013-01-10 11:52:00,
2013-01-10 07:03:00,41.0,28.0,30.41,North,350,12.0,17.0,60,-99.99,,,-99.99,,2013-01-10 12:03:00,
2013-01-10 07:12:00,41.0,28.0,30.41,North,350,8.0,-999.0,60,-99.99,,,-99.99,,2013-01-10 12:12:00,
2013-01-10 07:22:00,41.0,28.0,30.42,North,360,7.0,-999.0,60,-99.99,,,-99.99,,2013-01-10 12:22:00,
2013-01-10 07:33:00,39.0,28.0,30.43,North,360,7.0,-999.0,64,-99.99,,,-99.99,,2013-01-10 12:33:00,
2013-01-10 07:43:00,39.0,28.0,30.43,North,10,5.0,-999.0,64,-99.99,,,-99.99,,2013-01-10 12:43:00,
2013-01-10 07:53:00,39.0,28.0,30.44,North,360,7.0,-999.0,64,-99.99,,,-99.99,,2013-01-10 12:53:00,
2013-01-10 08:02:00,39.0,28.0,30.44,North,360,7.0,-999.0,64,-99.99,,,-99.99,,2013-01-10 13:02:00,
2013-01-10 08:12:00,39.0,28.0,30.44,North,360,8.0,-999.0,64,-99.99,,,-99.99,,2013-01-10 13:12:00,
2013-01-10 08:22:00,39.0,28.0,30.45,NNW,340,6.0,-999.0,64,-99.99,,,-99.99,,2013-01-10 13:22:00,
2013-01-10 08:32:00,41.0,28.0,30.46,North,350,6.0,-999.0,60,-99.99,,,-99.99,,2013-01-10 13:32:00,
2013-01-10 08:42:00,41.0,28.0,30.46,NNW,340,6.0,-999.0,60,-99.99,,,-99.99,,2013-01-10 13:42:00,
2013-01-10 08:52:00,43.0,28.0,30.46,NNW,340,6.0,-999.0,56,-99.99,,,-99.99,,2013-01-10 13:52:00,
2013-01-10 09:02:00,43.0,28.0,30.46,NNW,340,6.0,-999.0,56,-99.99,,,-99.99,,2013-01-10 14:02:00,
2013-01-10 09:12:00,43.0,28.0,30.47,NNW,330,6.0,-999.0,56,-99.99,,,-99.99,,2013-01-10 14:12:00,
2013-01-10 09:22:00,43.0,28.0,30.49,NNW,340,7.0,17.0,56,-99.99,,,-99.99,,2013-01-10 14:22:00,
2013-01-10 09:33:00,43.0,27.0,30.49,NNW,340,7.0,17.0,52,-99.99,,,-99.99,,2013-01-10 14:33:00,
2013-01-10 09:43:00,43.0,27.0,30.50,NNW,340,9.0,17.0,52,-99.99,,,-99.99,,2013-01-10 14:43:00,
2013-01-10 09:53:00,45.0,28.0,30.50,NNW,340,6.0,-999.0,52,-99.99,,,-99.99,,2013-01-10 14:53:00,
2013-01-10 10:03:00,45.0,28.0,30.50,NNW,340,6.0,-999.0,52,-99.99,,,-99.99,,2013-01-10 15:03:00,
2013-01-10 10:12:00,45.0,27.0,30.50,North,350,9.0,-999.0,48,-99.99,,,-99.99,,2013-01-10 15:12:00,
2013-01-10 10:23:00,45.0,27.0,30.51,NNW,340,12.0,17.0,48,-99.99,,,-99.99,,2013-01-10 15:23:00,
2013-01-10 10:33:00,45.0,27.0,30.51,North,350,12.0,18.0,48,-99.99,,,-99.99,,2013-01-10 15:33:00,
2013-01-10 10:43:00,45.0,27.0,30.51,NNW,340,14.0,21.0,48,-99.99,,,-99.99,,2013-01-10 15:43:00,
2013-01-10 10:53:00,45.0,27.0,30.51,NNW,330,12.0,22.0,48,-99.99,,,-99.99,,2013-01-10 15:53:00,
2013-01-10 11:03:00,45.0,27.0,30.51,NNW,330,12.0,22.0,48,-99.99,,,-99.99,,2013-01-10 16:03:00,
2013-01-10 11:13:00,45.0,27.0,30.50,NW,310,7.0,22.0,48,-99.99,,,-99.99,,2013-01-10 16:13:00,
2013-01-10 11:23:00,46.0,28.0,30.50,North,350,9.0,16.0,49,-99.99,,,-99.99,,2013-01-10 16:23:00,
2013-01-10 11:33:00,45.0,27.0,30.50,North,350,12.0,20.0,48,-99.99,,,-99.99,,2013-01-10 16:33:00,
2013-01-10 11:43:00,46.0,27.0,30.49,NNW,340,12.0,20.0,45,-99.99,,,-99.99,,2013-01-10 16:43:00,
2013-01-10 11:53:00,46.0,27.0,30.49,North,350,12.0,16.0,45,-99.99,,,-99.99,,2013-01-10 16:53:00,
2013-01-10 12:03:00,46.0,27.0,30.49,North,350,12.0,16.0,45,-99.99,,,-99.99,,2013-01-10 17:03:00,
2013-01-10 12:12:00,46.0,28.0,30.48,NNW,340,9.0,17.0,49,-99.99,,,-99.99,,2013-01-10 17:12:00,
2013-01-10 12:22:00,46.0,27.0,30.48,NNW,330,10.0,16.0,45,-99.99,,,-99.99,,2013-01-10 17:22:00,
2013-01-10 12:33:00,46.0,27.0,30.49,NW,320,13.0,20.0,45,-99.99,,,-99.99,,2013-01-10 17:33:00,
2013-01-10 12:42:00,46.0,27.0,30.49,NNW,330,14.0,22.0,45,-99.99,,,-99.99,,2013-01-10 17:42:00,
2013-01-10 12:53:00,46.0,27.0,30.47,NNW,330,12.0,18.0,45,-99.99,,,-99.99,,2013-01-10 17:53:00,
2013-01-10 13:03:00,46.0,27.0,30.47,NNW,330,12.0,18.0,45,-99.99,,,-99.99,,2013-01-10 18:03:00,
2013-01-10 13:12:00,46.0,27.0,30.48,NW,320,8.0,17.0,45,-99.99,,,-99.99,,2013-01-10 18:12:00,
2013-01-10 13:23:00,46.0,27.0,30.48,North,360,14.0,18.0,45,-99.99,,,-99.99,,2013-01-10 18:23:00,
2013-01-10 13:33:00,46.0,27.0,30.48,North,350,13.0,20.0,45,-99.99,,,-99.99,,2013-01-10 18:33:00,
2013-01-10 13:43:00,46.0,27.0,30.48,North,350,13.0,22.0,45,-99.99,,,-99.99,,2013-01-10 18:43:00,
2013-01-10 13:52:00,46.0,27.0,30.48,North,350,12.0,18.0,45,-99.99,,,-99.99,,2013-01-10 18:52:00,
2013-01-10 14:03:00,46.0,27.0,30.48,North,350,12.0,18.0,45,-99.99,,,-99.99,,2013-01-10 19:03:00,
2013-01-10 14:13:00,46.0,27.0,30.49,North,350,12.0,18.0,45,-99.99,,,-99.99,,2013-01-10 19:13:00,
2013-01-10 14:23:00,46.0,27.0,30.49,NNW,340,10.0,20.0,45,-99.99,,,-99.99,,2013-01-10 19:23:00,
2013-01-10 14:33:00,46.0,27.0,30.49,North,350,9.0,18.0,45,-99.99,,,-99.99,,2013-01-10 19:33:00,
2013-01-10 14:43:00,46.0,27.0,30.50,NNW,340,12.0,18.0,45,-99.99,,,-99.99,,2013-01-10 19:43:00,
2013-01-10 14:53:00,46.0,27.0,30.49,NNW,340,10.0,20.0,45,-99.99,,,-99.99,,2013-01-10 19:53:00,
2013-01-10 15:03:00,46.0,27.0,30.49,NNW,340,10.0,20.0,45,-99.99,,,-99.99,,2013-01-10 20:03:00,
2013-01-10 15:13:00,46.0,27.0,30.49,NNW,330,8.0,18.0,45,-99.99,,,-99.99,,2013-01-10 20:13:00,
2013-01-10 15:24:00,46.0,27.0,30.49,NNW,340,10.0,20.0,45,-99.99,,,-99.99,,2013-01-10 20:24:00,
2013-01-10 15:33:00,46.0,27.0,30.50,North,360,9.0,17.0,45,-99.99,,,-99.99,,2013-01-10 20:33:00,
2013-01-10 15:43:00,46.0,28.0,30.50,North,360,12.0,16.0,49,-99.99,,,-99.99,,2013-01-10 20:43:00,
2013-01-10 15:53:00,46.0,28.0,30.51,North,350,10.0,16.0,49,-99.99,,,-99.99,,2013-01-10 20:53:00,
2013-01-10 16:04:00,46.0,28.0,30.51,North,350,10.0,16.0,49,-99.99,,,-99.99,,2013-01-10 21:04:00,
2013-01-10 16:12:00,46.0,28.0,30.51,NNW,330,7.0,-999.0,49,-99.99,,,-99.99,,2013-01-10 21:12:00,
2013-01-10 16:23:00,45.0,28.0,30.51,NNW,340,8.0,-999.0,52,-99.99,,,-99.99,,2013-01-10 21:23:00,
2013-01-10 16:33:00,45.0,28.0,30.51,NNW,330,6.0,-999.0,52,-99.99,,,-99.99,,2013-01-10 21:33:00,
2013-01-10 16:42:00,45.0,28.0,30.51,North,350,6.0,-999.0,52,-99.99,,,-99.99,,2013-01-10 21:42:00,
2013-01-10 16:53:00,45.0,28.0,30.51,North,350,5.0,-999.0,52,-99.99,,,-99.99,,2013-01-10 21:53:00,
2013-01-10 17:04:00,45.0,28.0,30.51,North,350,5.0,-999.0,52,-99.99,,,-99.99,,2013-01-10 22:04:00,
2013-01-10 17:12:00,43.0,28.0,30.52,North,350,5.0,-999.0,56,-99.99,,,-99.99,,2013-01-10 22:12:00,
2013-01-10 17:33:00,43.0,28.0,30.52,North,360,7.0,-999.0,56,-99.99,,,-99.99,,2013-01-10 22:33:00,
2013-01-10 17:43:00,43.0,28.0,30.52,North,350,5.0,-999.0,56,-99.99,,,-99.99,,2013-01-10 22:43:00,
2013-01-10 18:03:00,43.0,28.0,30.53,North,10,3.0,-999.0,56,-99.99,,,-99.99,,2013-01-10 23:03:00,
2013-01-10 18:13:00,39.0,28.0,30.53,NE,40,5.0,-999.0,64,-99.99,,,-99.99,,2013-01-10 23:13:00,
2013-01-10 18:23:00,41.0,28.0,30.53,North,10,3.0,-999.0,60,-99.99,,,-99.99,,2013-01-10 23:23:00,
2013-01-10 18:33:00,41.0,28.0,30.52,North,350,5.0,-999.0,60,-99.99,,,-99.99,,2013-01-10 23:33:00,
2013-01-10 18:43:00,39.0,28.0,30.52,North,350,5.0,-999.0,64,-99.99,,,-99.99,,2013-01-10 23:43:00,
2013-01-10 18:53:00,41.0,28.0,30.53,North,360,5.0,-999.0,60,-99.99,,,-99.99,,2013-01-10 23:53:00,
2013-01-10 19:03:00,41.0,28.0,30.53,North,360,5.0,-999.0,60,-99.99,,,-99.99,,2013-01-11 00:03:00,
2013-01-10 19:13:00,39.0,28.0,30.54,North,0,0.0,-999.0,64,-99.99,,,-99.99,,2013-01-11 00:13:00,
2013-01-10 19:33:00,37.0,28.0,30.54,North,0,0.0,-999.0,69,-99.99,,,-99.99,,2013-01-11 00:33:00,
2013-01-10 19:42:00,37.0,28.0,30.55,North,0,0.0,-999.0,69,-99.99,,,-99.99,,2013-01-11 00:42:00,
2013-01-10 19:52:00,34.0,28.0,30.55,North,0,0.0,-999.0,80,-99.99,,,-99.99,,2013-01-11 00:52:00,
2013-01-10 20:03:00,34.0,28.0,30.55,North,0,0.0,-999.0,80,-99.99,,,-99.99,,2013-01-11 01:03:00,
2013-01-10 20:13:00,34.0,28.0,30.55,North,0,0.0,-999.0,80,-99.99,,,-99.99,,2013-01-11 01:13:00,
2013-01-10 20:23:00,32.0,28.0,30.55,North,0,0.0,-999.0,86,-99.99,,,-99.99,,2013-01-11 01:23:00,
2013-01-10 20:34:00,32.0,28.0,30.56,North,0,0.0,-999.0,86,-99.99,,,-99.99,,2013-01-11 01:34:00,
2013-01-10 20:43:00,32.0,28.0,30.56,North,0,0.0,-999.0,86,-99.99,,,-99.99,,2013-01-11 01:43:00,
2013-01-10 20:53:00,32.0,28.0,30.56,North,0,0.0,-999.0,86,-99.99,,,-99.99,,2013-01-11 01:53:00,
2013-01-10 21:03:00,32.0,28.0,30.56,North,0,0.0,-999.0,86,-99.99,,,-99.99,,2013-01-11 02:03:00,
2013-01-10 21:13:00,30.0,27.0,30.56,North,0,0.0,-999.0,86,-99.99,,,-99.99,,2013-01-11 02:13:00,
2013-01-10 21:23:00,30.0,28.0,30.57,North,0,0.0,-999.0,92,-99.99,,,-99.99,,2013-01-11 02:23:00,
2013-01-10 21:33:00,30.0,28.0,30.56,NNE,30,3.0,-999.0,92,-99.99,,,-99.99,,2013-01-11 02:33:00,
2013-01-10 21:43:00,30.0,27.0,30.56,NNE,30,3.0,-999.0,86,-99.99,,,-99.99,,2013-01-11 02:43:00,
2013-01-10 21:53:00,30.0,28.0,30.57,North,0,0.0,-999.0,92,-99.99,,,-99.99,,2013-01-11 02:53:00,
2013-01-10 22:03:00,30.0,28.0,30.57,North,0,0.0,-999.0,92,-99.99,,,-99.99,,2013-01-11 03:03:00,
2013-01-10 22:12:00,30.0,27.0,30.57,North,0,0.0,-999.0,86,-99.99,,,-99.99,,2013-01-11 03:12:00,
2013-01-10 22:23:00,30.0,27.0,30.57,North,0,0.0,-999.0,86,-99.99,,,-99.99,,2013-01-11 03:23:00,
2013-01-10 22:33:00,30.0,27.0,30.57,North,0,0.0,-999.0,86,-99.99,,,-99.99,,2013-01-11 03:33:00,
2013-01-10 22:43:00,28.0,27.0,30.57,North,0,0.0,-999.0,92,-99.99,,,-99.99,,2013-01-11 03:43:00,
2013-01-10 22:53:00,28.0,27.0,30.58,North,0,0.0,-999.0,92,-99.99,,,-99.99,,2013-01-11 03:53:00,
2013-01-10 23:02:00,28.0,27.0,30.58,North,0,0.0,-999.0,92,-99.99,,,-99.99,,2013-01-11 04:02:00,
2013-01-10 23:12:00,28.0,27.0,30.57,North,0,0.0,-999.0,92,-99.99,,,-99.99,,2013-01-11 04:12:00,
2013-01-10 23:22:00,28.0,27.0,30.56,NNE,20,3.0,-999.0,92,-99.99,,,-99.99,,2013-01-11 04:22:00,
2013-01-10 23:33:00,28.0,27.0,30.56,North,10,3.0,-999.0,92,-99.99,,,-99.99,,2013-01-11 04:33:00,
2013-01-10 23:43:00,28.0,27.0,30.56,North,0,0.0,-999.0,92,-99.99,,,-99.99,,2013-01-11 04:43:00,
2013-01-10 23:52:00,28.0,27.0,30.57,North,0,0.0,-999.0,92,-99.99,,,-99.99,,2013-01-11 04:52:00,